Temp
-12 -12 -12 -12 -12 -13 -13 -13 -13 -13 -13 -13 -13 -13 -13 -13 -13 -13 -13 -13 -13 -13 -13 -13 -13 -13 -13 -13 -13 -13 -12 -12 -12 -12 -12 -12 -12 -12 -12 -12 -12 -12
-12 -12 -12 -12 -13 -13 -13 -13 -13 -13 -13 -13 -13 -13 -13 -13 -13 -13 -13 -13 -13 -13 -13 -13 -13 -13 -13 -13 -13 -13 -13 -13 -13 -13 -13 -12 -12 -12 -12 -12 -12 -12
-12 -13 -13 -13 -13 -13 -13 -13 -13 -13 -13 -13 -13 -13 -13 -13 -13 -13 -13 -13 -13 -13 -13 -13 -13 -13 -13 -13 -13 -13 -13 -13 -13 -13 -13 -13 -12 -12 -12 -12 -12 -12
-13 -13 -13 -13 -13 -13 -13 -13 -13 -13 -13 -13 -13 -13 -13 -13 -13 -13 -13 -13 -13 -13 -13 -14 -14 -13 -13 -13 -13 -13 -12 -13 -12 -13 -13 -13 -12 -12 -12 -12 -12 -12
-13 -13 -13 -13 -13 -13 -13 -13 -13 -13 -13 -13 -13 -13 -13 -13 -13 -13 -13 -13 -13 -13 -13 -14 -14 -14 -13 -13 -13 -13 -13 -12 -12 -12 -13 -13 -13 -12 -12 -12 -12 -12
-13 -13 -13 -13 -13 -13 -13 -13 -13 -13 -13 -13 -13 -13 -13 -13 -13 -13 -13 -13 -13 -13 -13 -14 -14 -13 -13 -13 -13 -13 -13 -13 -12 -13 -13 -13 -13 -13 -13 -12 -13 -12
-13 -13 -13 -13 -13 -13 -13 -14 -14 -14 -14 -14 -13 -13 -13 -13 -13 -13 -14 -14 -14 -13 -13 -14 -14 -14 -14 -13 -13 -13 -13 -13 -12 -13 -13 -13 -13 -13 -13 -13 -13 -13
-13 -13 -13 -13 -13 -14 -14 -14 -14 -14 -14 -14 -14 -14 -14 -14 -13 -14 -14 -14 -14 -14 -14 -14 -14 -14 -14 -14 -13 -13 -13 -13 -13 -13 -13 -13 -13 -13 -13 -13 -13 -13
-13 -13 -13 -13 -13 -14 -14 -14 -14 -14 -14 -14 -14 -14 -14 -14 -14 -14 -14 -14 -14 -14 -14 -14 -14 -14 -14 -14 -14 -13 -13 -13 -13 -13 -13 -13 -13 -13 -13 -13 -13 -13
-13 -14 -14 -13 -14 -14 -14 -14 -14 -14 -14 -14 -14 -14 -14 -14 -14 -14 -14 -14 -14 -14 -14 -14 -14 -14 -14 -14 -14 -14 -14 -14 -14 -13 -13 -13 -13 -13 -13 -13 -13 -13
-14 -14 -14 -14 -14 -14 -14 -14 -14 -14 -14 -14 -14 -14 -14 -14 -14 -14 -14 -14 -15 -15 -15 -15 -15 -14 -14 -14 -14 -14 -14 -14 -14 -14 -13 -13 -13 -13 -13 -13 -13 -13
-14 -14 -14 -14 -14 -14 -14 -14 -14 -14 -14 -14 -14 -14 -14 -14 -14 -14 -14 -14 -15 -15 -15 -15 -15 -15 -15 -14 -14 -14 -14 -14 -14 -14 -14 -14 -13 -13 -13 -13 -13 -13
-14 -14 -14 -14 -14 -14 -14 -15 -15 -15 -15 -14 -14 -14 -14 -14 -14 -14 -14 -14 -14 -15 -15 -15 -15 -15 -15 -15 -15 -14 -14 -14 -14 -14 -14 -14 -14 -13 -14 -14 -13 -13
-14 -14 -14 -15 -15 -15 -15 -15 -15 -15 -15 -15 -15 -14 -14 -14 -14 -14 -14 -14 -14 -14 -15 -15 -15 -15 -15 -15 -15 -15 -14 -14 -14 -14 -14 -13 -13 -13 -14 -14 -14 -14
-15 -15 -15 -15 -15 -15 -15 -15 -15 -15 -15 -15 -15 -15 -15 -15 -14 -14 -14 -14 -14 -14 -14 -14 -15 -15 -15 -15 -15 -15 -15 -14 -14 -14 -14 -14 -14 -14 -14 -14 -14 -14
-15 -15 -15 -15 -15 -15 -15 -15 -15 -15 -15 -15 -15 -15 -15 -15 -15 -15 -15 -14 -14 -14 -14 -14 -14 -15 -15 -15 -15 -15 -15 -15 -14 -14 -14 -14 -14 -14 -14 -14 -14 -14
-15 -15 -15 -15 -15 -15 -15 -15 -15 -15 -15 -15 -15 -15 -15 -15 -15 -15 -15 -15 -15 -14 -14 -14 -14 -14 -15 -15 -15 -15 -15 -15 -15 -15 -14 -14 -14 -14 -14 -14 -14 -14
-15 -15 -15 -15 -15 -15 -15 -15 -15 -15 -15 -15 -15 -15 -15 -15 -15 -15 -15 -15 -15 -15 -15 -14 -14 -14 -15 -15 -15 -15 -15 -15 -15 -15 -15 -14 -14 -14 -14 -14 -14 -14
-15 -15 -15 -15 -15 -15 -15 -15 -15 -15 -16 -16 -16 -16 -16 -15 -15 -15 -15 -15 -15 -15 -15 -15 -15 -14 -14 -15 -15 -15 -15 -15 -15 -15 -15 -14 -14 -14 -14 -14 -14 -14
-16 -16 -16 -16 -16 -16 -16 -16 -16 -16 -16 -16 -16 -16 -16 -16 -15 -15 -15 -15 -15 -15 -15 -15 -15 -15 -15 -15 -15 -15 -15 -15 -15 -15 -15 -14 -14 -14 -14 -14 -15 -14
-16 -16 -16 -16 -16 -16 -16 -16 -16 -16 -16 -16 -16 -16 -16 -16 -16 -15 -15 -16 -15 -15 -15 -15 -15 -15 -15 -15 -15 -15 -15 -15 -15 -15 -15 -15 -14 -14 -15 -15 -15 -15
-16 -16 -16 -16 -16 -16 -16 -16 -16 -16 -16 -16 -16 -16 -16 -16 -16 -16 -16 -16 -16 -16 -15 -15 -15 -15 -15 -15 -15 -15 -15 -15 -15 -15 -15 -15 -15 -15 -15 -15 -15 -15
-16 -16 -16 -16 -16 -16 -16 -16 -16 -16 -16 -16 -16 -16 -16 -16 -16 -16 -16 -16 -16 -16 -16 -16 -16 -15 -15 -15 -15 -15 -15 -15 -15 -15 -15 -15 -15 -15 -15 -15 -15 -15
-16 -16 -16 -16 -16 -16 -16 -16 -16 -16 -16 -16 -16 -16 -16 -16 -16 -16 -16 -16 -16 -16 -16 -16 -16 -16 -16 -16 -15 -15 -15 -15 -15 -15 -15 -15 -15 -15 -15 -15 -15 -15
-17 -17 -16 -16 -16 -16 -16 -16 -16 -16 -16 -16 -16 -16 -16 -16 -16 -16 -16 -16 -16 -16 -16 -16 -16 -16 -16 -16 -16 -16 -15 -15 -15 -15 -15 -15 -15 -15 -15 -15 -15 -15
-17 -17 -17 -16 -16 -16 -16 -16 -16 -16 -16 -16 -16 -16 -16 -16 -16 -16 -16 -16 -16 -16 -16 -16 -16 -16 -16 -16 -16 -16 -16 -15 -15 -15 -15 -15 -15 -15 -15 -15 -15 -15
Height
5798 5796 5796 5795 5794 5793 5791 5790 5789 5787 5786 5785 5784 5783 5782 5780 5778 5776 5774 5773 5771 5769 5768 5767 5767 5766 5766 5766 5766 5766 5765 5765 5765 5765 5766 5766 5767 5767 5767 5769 5770 5772
5795 5794 5793 5792 5791 5790 5789 5787 5786 5785 5783 5782 5781 5780 5779 5777 5775 5773 5771 5769 5767 5765 5764 5764 5764 5764 5763 5763 5762 5762 5762 5761 5761 5762 5763 5763 5764 5764 5765 5766 5767 5768
5793 5791 5790 5789 5788 5787 5786 5785 5784 5782 5781 5779 5778 5777 5775 5774 5772 5770 5768 5766 5764 5763 5762 5761 5760 5760 5760 5760 5760 5760 5759 5759 5759 5759 5759 5760 5761 5761 5761 5762 5763 5764
5790 5789 5788 5787 5785 5784 5783 5782 5781 5780 5778 5777 5776 5774 5772 5770 5769 5767 5765 5763 5761 5760 5759 5758 5757 5756 5756 5756 5756 5757 5757 5757 5757 5756 5756 5757 5757 5758 5758 5758 5759 5761
5787 5787 5785 5784 5783 5782 5781 5780 5778 5777 5776 5775 5773 5771 5769 5767 5766 5764 5762 5760 5758 5756 5755 5754 5753 5752 5752 5751 5752 5753 5753 5753 5753 5753 5753 5753 5754 5755 5755 5755 5756 5757
5785 5784 5783 5782 5780 5779 5778 5777 5776 5774 5773 5772 5770 5768 5767 5765 5763 5761 5759 5757 5755 5753 5752 5751 5750 5749 5749 5749 5750 5750 5750 5749 5749 5750 5750 5750 5750 5751 5752 5752 5752 5753
5782 5781 5780 5779 5778 5777 5775 5774 5773 5772 5770 5769 5768 5766 5764 5762 5761 5759 5757 5754 5752 5750 5749 5748 5747 5746 5746 5747 5747 5747 5747 5746 5746 5746 5746 5746 5747 5747 5748 5748 5749 5750
5779 5778 5777 5776 5775 5774 5773 5772 5771 5769 5768 5767 5765 5764 5762 5760 5758 5756 5754 5752 5750 5747 5746 5745 5744 5743 5743 5743 5744 5743 5743 5742 5741 5741 5741 5742 5743 5743 5744 5745 5746 5747
5776 5775 5774 5773 5772 5771 5770 5769 5768 5767 5765 5764 5762 5761 5760 5758 5756 5754 5751 5749 5748 5746 5744 5742 5741 5740 5740 5740 5740 5740 5739 5738 5738 5738 5738 5738 5739 5739 5740 5741 5742 5743
5772 5772 5771 5770 5769 5768 5767 5766 5765 5764 5762 5761 5760 5759 5757 5756 5754 5752 5750 5748 5746 5743 5742 5740 5739 5738 5738 5738 5737 5737 5736 5735 5735 5736 5735 5735 5736 5736 5737 5737 5738 5739
5769 5769 5768 5767 5766 5765 5764 5763 5762 5761 5760 5758 5757 5756 5755 5753 5752 5750 5748 5746 5744 5742 5740 5738 5737 5736 5735 5735 5734 5733 5733 5732 5732 5733 5733 5732 5732 5733 5733 5734 5735 5736
5766 5765 5765 5764 5763 5761 5760 5759 5758 5758 5757 5756 5754 5754 5752 5751 5750 5748 5746 5745 5743 5741 5739 5737 5735 5733 5732 5732 5731 5731 5730 5730 5729 5729 5729 5729 5729 5729 5729 5730 5731 5732
5763 5762 5761 5760 5759 5758 5757 5755 5754 5754 5753 5753 5752 5751 5750 5748 5747 5746 5744 5743 5741 5739 5738 5736 5734 5732 5730 5729 5729 5728 5727 5727 5726 5726 5726 5726 5727 5726 5726 5726 5727 5728
5759 5758 5758 5757 5755 5754 5753 5752 5751 5750 5749 5749 5748 5747 5746 5745 5744 5743 5741 5740 5738 5737 5736 5734 5733 5731 5729 5727 5726 5726 5725 5724 5723 5723 5723 5723 5724 5724 5723 5723 5723 5724
5755 5755 5754 5753 5752 5751 5749 5748 5747 5746 5745 5745 5744 5744 5743 5742 5741 5739 5738 5737 5735 5734 5733 5731 5730 5729 5727 5726 5724 5723 5722 5721 5720 5720 5720 5720 5720 5720 5720 5720 5720 5721
5752 5751 5750 5750 5749 5747 5746 5745 5743 5742 5741 5740 5740 5739 5738 5738 5737 5736 5735 5733 5732 5731 5729 5728 5727 5726 5724 5723 5722 5721 5720 5718 5718 5717 5717 5717 5716 5716 5716 5716 5716 5717
5748 5747 5746 5746 5745 5744 5742 5741 5740 5738 5737 5736 5735 5734 5734 5733 5732 5732 5731 5730 5728 5727 5726 5725 5724 5722 5721 5720 5719 5719 5718 5716 5715 5714 5714 5714 5713 5713 5713 5712 5713 5713
5744 5743 5742 5741 5740 5739 5738 5737 5736 5734 5733 5732 5731 5730 5729 5728 5728 5727 5726 5726 5725 5724 5723 5722 5721 5720 5718 5716 5715 5715 5714 5714 5713 5711 5711 5710 5710 5709 5709 5709 5709 5709
5740 5739 5738 5737 5736 5735 5734 5733 5731 5730 5729 5728 5727 5726 5725 5724 5723 5722 5721 5721 5720 5720 5719 5718 5717 5716 5715 5713 5712 5711 5711 5710 5709 5708 5707 5706 5706 5706 5705 5705 5705 5705
5736 5735 5734 5733 5732 5730 5729 5728 5727 5726 5725 5724 5723 5721 5720 5719 5718 5717 5716 5716 5715 5715 5714 5714 5713 5712 5711 5710 5709 5708 5707 5707 5706 5705 5703 5702 5702 5701 5700 5700 5700 5700
5732 5731 5730 5728 5727 5726 5725 5724 5723 5721 5720 5719 5718 5717 5715 5714 5713 5712 5711 5710 5709 5709 5709 5709 5708 5707 5706 5706 5705 5704 5703 5703 5702 5701 5699 5698 5698 5697 5696 5696 5696 5696
5728 5727 5725 5723 5722 5721 5720 5719 5718 5716 5715 5714 5713 5712 5710 5709 5708 5707 5706 5705 5704 5704 5703 5703 5703 5702 5701 5701 5700 5699 5698 5698 5698 5697 5696 5695 5694 5693 5693 5692 5692 5691
5724 5723 5720 5719 5718 5717 5715 5714 5713 5711 5710 5709 5707 5706 5705 5703 5702 5701 5701 5700 5699 5699 5698 5697 5697 5696 5696 5695 5695 5694 5693 5693 5693 5692 5691 5691 5690 5689 5688 5688 5687 5687
5719 5717 5716 5714 5713 5712 5710 5709 5708 5706 5704 5703 5702 5700 5699 5698 5696 5696 5695 5694 5693 5693 5692 5692 5691 5690 5689 5689 5689 5689 5688 5687 5687 5687 5686 5686 5686 5685 5684 5684 5683 5684
5713 5712 5711 5710 5708 5707 5705 5704 5702 5700 5699 5697 5695 5694 5692 5691 5690 5689 5688 5687 5687 5686 5686 5686 5686 5685 5684 5683 5683 5683 5683 5682 5682 5681 5681 5681 5681 5681 5680 5679 5679 5679
5708 5706 5705 5704 5703 5701 5699 5698 5696 5694 5693 5691 5689 5687 5686 5684 5683 5682 5681 5680 5679 5679 5679 5678 5678 5678 5678 5677 5676 5676 5677 5677 5676 5675 5675 5675 5675 5675 5675 5675 5674 5674
Wind_Speed
26 26 26 27 27 26 26 26 26 27 27 28 29 30 29 29 30 31 31 30 30 29 27 26 25 24 23 21 20 21 24 25 24 22 22 22 21 22 22 24 25 23
26 27 27 27 27 27 26 26 26 26 27 28 30 30 30 29 29 30 30 30 30 28 26 26 26 25 25 24 21 21 22 23 22 22 22 22 22 22 22 24 25 24
26 27 27 28 28 27 26 26 25 25 26 28 30 30 31 30 30 30 30 29 29 27 25 25 25 25 25 25 24 23 22 21 21 22 23 23 22 22 23 25 26 26
26 27 27 28 28 27 26 25 25 24 26 28 30 31 32 32 31 30 30 28 27 26 25 24 24 23 23 24 25 24 23 22 21 21 23 23 23 23 24 26 27 27
27 27 27 28 27 26 26 25 24 24 26 28 30 31 33 33 33 32 31 28 26 25 25 25 23 22 22 23 24 23 23 23 22 21 21 23 24 24 25 25 27 28
27 27 27 27 27 26 26 24 23 24 27 28 30 31 33 33 33 32 31 29 26 24 24 25 24 22 21 22 23 23 23 24 23 22 21 22 24 26 27 26 26 28
27 27 28 28 27 27 25 24 23 25 27 28 30 31 32 32 32 32 31 28 26 23 23 23 23 23 21 21 23 23 22 23 25 24 23 22 23 26 28 27 27 28
28 28 28 28 28 27 25 24 24 25 27 28 30 31 31 30 31 32 32 30 26 23 22 22 22 22 22 22 23 23 22 23 25 26 25 24 23 25 26 26 27 28
29 29 29 29 28 27 25 24 24 25 27 28 29 30 29 29 29 31 32 31 28 25 22 21 21 22 23 22 22 23 24 24 24 24 25 25 24 24 25 25 27 28
29 29 29 29 28 27 26 25 25 26 27 28 29 28 28 27 28 29 30 30 29 27 24 22 21 22 22 22 22 23 25 26 25 22 23 23 24 25 25 25 25 28
30 29 29 29 28 28 27 26 26 26 27 28 28 27 26 26 27 28 29 28 27 27 26 24 22 22 23 23 23 23 24 26 27 25 22 22 24 25 24 24 24 25
30 29 29 29 29 29 29 28 28 27 27 28 28 27 26 26 27 27 28 28 27 26 25 24 23 23 23 23 23 24 23 25 27 27 25 23 22 23 25 25 25 25
30 30 30 30 30 31 30 30 30 29 28 28 27 27 27 27 27 27 27 28 28 26 25 24 23 22 23 22 22 22 23 23 24 26 26 25 23 22 23 23 24 25
31 31 31 31 32 32 32 32 32 32 30 29 28 27 28 28 28 28 28 28 28 27 26 25 23 22 22 22 22 22 23 23 23 23 24 25 25 24 23 22 22 24
32 32 33 33 34 34 34 35 34 34 33 31 29 29 29 29 29 29 29 29 29 29 28 26 25 23 22 22 22 22 23 23 23 23 22 22 24 25 26 25 24 24
33 34 34 35 35 35 36 36 36 35 34 33 32 31 31 31 30 30 31 31 31 31 30 28 27 26 24 23 21 21 21 22 21 21 21 21 22 24 26 26 26 24
35 36 36 36 37 37 36 36 36 35 35 35 34 34 34 33 33 33 33 33 33 32 31 30 29 28 27 26 24 22 21 21 21 21 21 21 22 24 25 26 26 25
37 37 37 37 37 37 37 36 36 35 35 35 36 36 36 36 36 36 35 35 34 34 33 32 30 29 28 28 26 24 23 22 21 21 21 21 22 23 24 25 25 25
37 38 38 38 37 37 37 36 36 36 36 36 37 37 38 38 38 38 37 37 36 35 34 33 32 30 29 29 28 27 25 23 22 23 23 22 22 23 24 24 24 25
37 38 38 38 38 38 37 37 37 37 37 37 37 38 38 39 40 40 39 39 38 37 35 34 33 32 31 30 29 28 27 26 24 24 24 24 24 25 25 24 24 25
37 38 39 39 39 39 39 39 39 39 39 39 39 40 40 41 41 41 41 40 40 39 38 36 34 34 33 32 31 30 29 28 27 26 26 26 26 26 26 26 25 25
38 38 39 40 40 40 40 41 41 42 42 42 43 43 44 43 43 42 42 41 40 39 39 38 36 35 34 33 33 32 31 30 29 29 29 28 28 28 27 26 27 26
39 39 39 40 40 40 41 42 42 43 44 45 45 46 46 46 46 45 44 42 41 40 38 38 37 37 36 34 34 34 34 32 31 31 31 30 30 29 28 27 28 28
40 40 41 41 41 41 42 43 43 44 45 46 47 47 47 47 47 47 46 45 43 42 40 39 38 38 38 36 35 34 35 35 34 33 33 33 32 31 31 30 29 28
42 42 43 43 43 44 45 45 46 47 47 48 48 49 49 49 49 48 48 47 47 45 44 43 41 40 40 39 38 36 35 35 36 35 34 34 34 34 33 33 32 30
43 43 44 44 45 46 46 47 47 48 48 49 50 50 51 51 51 51 51 51 50 50 48 47 46 44 43 42 42 40 38 37 37 37 36 35 35 35 34 34 34 32
Wind_Direction
296 298 301 303 305 307 308 310 312 314 317 318 319 319 318 314 310 308 307 303 299 296 293 292 290 287 278 269 267 265 260 255 252 252 254 252 248 244 239 237 237 238
296 299 301 302 304 306 308 310 313 316 318 318 319 320 319 315 311 309 308 303 299 296 292 290 291 290 280 269 265 264 261 257 253 251 251 249 247 244 239 237 237 236
295 297 299 300 302 305 307 310 313 316 317 318 320 322 322 320 315 312 309 305 300 295 291 287 288 288 280 270 266 265 264 263 258 255 253 252 249 246 242 240 238 236
292 295 297 299 301 304 307 310 313 315 317 318 320 322 324 324 321 316 313 309 301 294 289 286 285 285 279 270 264 264 266 268 268 263 257 253 250 246 244 242 240 238
290 294 296 298 301 303 306 310 312 313 316 318 320 323 324 325 324 321 317 312 303 295 290 285 282 281 276 269 264 264 264 265 267 268 262 255 250 246 245 243 240 237
290 293 295 298 300 303 305 307 309 312 315 318 321 323 324 325 324 322 319 314 306 298 291 284 280 279 276 269 266 266 267 265 264 266 266 259 252 248 247 243 238 236
289 292 294 297 299 301 303 304 306 310 314 317 320 322 323 324 324 322 322 320 314 306 295 285 279 279 278 273 268 264 263 264 264 265 266 263 256 251 249 244 239 237
288 291 293 295 297 298 299 301 304 309 313 316 319 320 321 322 324 324 324 326 326 319 304 290 282 279 277 273 270 265 259 259 260 261 262 261 257 255 253 249 244 242
287 289 291 293 294 295 296 299 303 308 312 315 318 319 319 320 323 324 325 327 330 329 317 299 286 279 277 273 269 266 264 262 261 259 260 260 259 257 257 254 250 247
286 288 290 292 293 293 295 298 302 307 311 314 316 316 316 318 321 323 324 326 328 330 326 314 298 285 280 279 275 271 268 266 264 262 261 262 262 261 260 258 254 248
285 288 290 291 291 292 293 297 301 305 310 312 314 313 312 314 317 319 321 323 324 325 326 323 314 298 287 282 281 279 274 269 266 265 265 265 265 264 263 261 256 250
285 287 288 289 289 290 293 296 300 303 307 309 310 309 308 309 312 315 317 319 320 320 320 321 319 311 300 291 285 283 280 274 270 267 267 268 268 266 264 261 255 251
284 286 287 287 288 290 293 296 299 302 304 306 306 305 305 305 308 310 313 315 316 316 315 314 314 314 310 305 297 287 282 280 277 270 266 267 268 267 266 263 258 255
283 285 286 287 288 290 293 296 298 301 302 302 302 300 301 302 305 307 310 312 313 313 312 310 309 309 309 310 308 300 291 288 286 280 272 269 267 267 268 268 266 262
283 284 285 287 289 291 293 295 297 299 300 299 298 296 297 299 301 305 307 309 311 312 311 308 307 306 304 305 308 307 303 299 294 287 280 274 270 267 266 268 269 268
283 285 286 287 288 290 292 294 296 297 297 297 296 294 294 296 299 302 305 307 308 309 310 308 306 305 302 301 301 302 303 305 302 295 287 280 276 272 269 267 267 268
283 285 286 287 288 289 290 292 293 294 295 295 294 293 294 295 297 300 302 304 305 306 307 306 305 303 301 299 298 296 295 298 300 299 296 290 283 278 273 270 269 269
284 285 286 287 288 289 290 290 291 291 291 291 291 291 293 294 296 298 299 300 301 302 303 303 302 300 298 296 295 294 292 291 290 292 295 295 289 283 278 276 274 271
284 285 286 287 288 289 289 289 290 290 289 290 290 291 292 293 294 296 297 298 298 299 299 299 299 298 296 294 292 290 289 288 287 286 288 290 290 287 282 278 274 269
286 287 287 288 288 289 289 289 289 289 289 289 290 291 291 292 293 294 295 296 296 296 296 295 295 294 293 292 291 289 287 285 284 283 282 283 285 284 280 276 274 271
287 287 288 288 288 288 288 288 287 287 288 288 289 289 290 291 291 292 293 294 294 294 293 292 291 290 289 289 288 288 286 284 281 279 278 278 278 279 279 277 276 276
288 288 288 288 287 287 287 287 287 287 288 288 289 289 290 291 291 291 291 291 291 291 291 290 289 287 286 285 284 285 284 283 279 276 275 275 275 277 279 278 276 276
288 288 288 288 288 288 288 288 288 289 289 289 289 290 290 290 290 290 290 289 288 288 288 288 288 287 285 283 281 280 281 281 279 275 273 273 273 274 277 277 275 274
288 288 288 288 289 289 289 289 289 289 289 289 289 289 288 288 288 288 287 287 286 285 285 285 285 285 285 284 281 278 277 278 277 275 273 271 271 272 274 275 275 274
288 288 288 288 288 288 288 288 288 288 288 287 287 287 286 286 285 285 285 284 284 283 283 283 282 282 282 282 282 280 277 276 276 275 273 271 271 271 272 272 272 272
289 289 289 288 289 288 288 288 287 287 287 286 286 285 285 284 284 283 283 283 283 282 282 281 281 280 280 279 279 279 277 275 275 274 273 271 270 271 270 269 269 269